Time,TemperatureF,DewpointF,PressureIn,WindDirection,WindDirectionDegrees,WindSpeedMPH,WindSpeedGustMPH,Humidity,HourlyPrecipIn,Conditions,Clouds,dailyrainin,SolarRadiationWatts/m^2,SoftwareType,DateUTC
2013-03-01 00:01:00,46.0,37.0,-100.00,SSW,208,9.0,14.0,72,0.00,,,0.01,1.000000,,2013-03-01 08:01:00,
2013-03-01 00:22:00,43.0,36.0,-100.00,SSW,194,6.0,12.0,77,0.00,,,0.01,1.000000,,2013-03-01 08:22:00,
2013-03-01 00:32:00,43.0,36.0,-100.00,SSW,194,6.0,12.0,77,0.00,,,0.01,1.000000,,2013-03-01 08:32:00,
2013-03-01 00:43:00,43.0,36.0,-100.00,SSW,194,6.0,12.0,77,0.00,,,0.01,1.000000,,2013-03-01 08:43:00,
2013-03-01 00:53:00,43.0,36.0,-100.00,SSW,194,6.0,12.0,77,0.00,,,0.01,1.000000,,2013-03-01 08:53:00,
2013-03-01 01:01:00,43.0,36.0,-100.00,SSW,194,6.0,12.0,77,0.00,,,0.01,1.000000,,2013-03-01 09:01:00,
2013-03-01 01:22:00,44.0,35.0,-100.00,WSW,246,5.0,13.0,71,0.00,,,0.01,1.000000,,2013-03-01 09:22:00,
2013-03-01 01:32:00,44.0,35.0,-100.00,WSW,246,5.0,13.0,71,0.00,,,0.01,1.000000,,2013-03-01 09:32:00,
2013-03-01 01:42:00,44.0,35.0,-100.00,WSW,246,5.0,13.0,71,0.00,,,0.01,1.000000,,2013-03-01 09:42:00,
2013-03-01 01:52:00,44.0,35.0,-100.00,WSW,246,5.0,13.0,71,0.00,,,0.01,1.000000,,2013-03-01 09:52:00,
2013-03-01 02:01:00,44.0,35.0,-100.00,WSW,246,5.0,13.0,71,0.00,,,0.01,1.000000,,2013-03-01 10:01:00,
2013-03-01 02:32:00,45.0,37.0,-100.00,ESE,122,7.0,14.0,72,0.00,,,0.01,1.000000,,2013-03-01 10:32:00,
2013-03-01 02:42:00,45.0,37.0,-100.00,ESE,122,7.0,14.0,72,0.00,,,0.01,1.000000,,2013-03-01 10:42:00,
2013-03-01 02:52:00,45.0,37.0,-100.00,ESE,122,7.0,14.0,72,0.00,,,0.01,1.000000,,2013-03-01 10:52:00,
2013-03-01 03:01:00,45.0,37.0,-100.00,ESE,122,7.0,14.0,72,0.00,,,0.01,1.000000,,2013-03-01 11:01:00,
2013-03-01 03:32:00,43.0,36.0,-100.00,NW,304,2.0,11.0,77,0.00,,,0.01,1.000000,,2013-03-01 11:32:00,
2013-03-01 03:42:00,43.0,36.0,-100.00,NW,304,2.0,11.0,77,0.00,,,0.01,1.000000,,2013-03-01 11:42:00,
2013-03-01 03:52:00,43.0,36.0,-100.00,NW,304,2.0,11.0,77,0.00,,,0.01,1.000000,,2013-03-01 11:52:00,
2013-03-01 04:01:00,43.0,36.0,-100.00,NW,304,2.0,11.0,77,0.00,,,0.01,1.000000,,2013-03-01 12:01:00,
2013-03-01 04:32:00,42.0,35.0,-100.00,SE,139,4.0,6.0,76,0.00,,,0.01,1.000000,,2013-03-01 12:32:00,
2013-03-01 04:42:00,42.0,35.0,-100.00,SE,139,4.0,6.0,76,0.00,,,0.01,1.000000,,2013-03-01 12:42:00,
2013-03-01 04:52:00,42.0,35.0,-100.00,SE,139,4.0,6.0,76,0.00,,,0.01,1.000000,,2013-03-01 12:52:00,
2013-03-01 05:01:00,42.0,35.0,-100.00,SE,139,4.0,6.0,76,0.00,,,0.01,1.000000,,2013-03-01 13:01:00,
2013-03-01 05:32:00,40.0,33.0,-100.00,SSW,204,4.0,6.0,77,0.00,,,0.01,1.000000,,2013-03-01 13:32:00,
2013-03-01 05:42:00,40.0,33.0,-100.00,SSW,204,4.0,6.0,77,0.00,,,0.01,1.000000,,2013-03-01 13:42:00,
2013-03-01 05:52:00,40.0,33.0,-100.00,SSW,204,4.0,6.0,77,0.00,,,0.01,1.000000,,2013-03-01 13:52:00,
2013-03-01 06:01:00,40.0,33.0,-100.00,SSW,204,4.0,6.0,77,0.00,,,0.01,1.000000,,2013-03-01 14:01:00,
2013-03-01 06:32:00,39.0,33.0,-100.00,SSW,193,3.0,7.0,78,0.00,,,0.01,1.000000,,2013-03-01 14:32:00,
2013-03-01 06:42:00,39.0,33.0,-100.00,SSW,193,3.0,7.0,78,0.00,,,0.01,1.000000,,2013-03-01 14:42:00,
2013-03-01 06:52:00,39.0,33.0,-100.00,SSW,193,3.0,7.0,78,0.00,,,0.01,1.000000,,2013-03-01 14:52:00,
2013-03-01 07:01:00,39.0,33.0,-100.00,SSW,193,3.0,7.0,78,0.00,,,0.01,1.000000,,2013-03-01 15:01:00,
2013-03-01 07:21:00,43.0,35.0,-100.00,SE,134,9.0,15.0,72,0.00,,,0.01,4.000000,,2013-03-01 15:21:00,
2013-03-01 07:32:00,43.0,35.0,-100.00,SE,134,9.0,15.0,72,0.00,,,0.01,4.000000,,2013-03-01 15:32:00,
2013-03-01 07:42:00,43.0,35.0,-100.00,SE,134,9.0,15.0,72,0.00,,,0.01,4.000000,,2013-03-01 15:42:00,
2013-03-01 07:52:00,43.0,35.0,-100.00,SE,134,9.0,15.0,72,0.00,,,0.01,4.000000,,2013-03-01 15:52:00,
2013-03-01 08:01:00,43.0,35.0,-100.00,SE,134,9.0,15.0,72,0.00,,,0.01,4.000000,,2013-03-01 16:01:00,
2013-03-01 08:32:00,47.0,35.0,-100.00,SE,125,6.0,15.0,62,0.00,,,0.01,72.000000,,2013-03-01 16:32:00,
2013-03-01 09:32:00,51.0,35.0,-100.00,South,180,6.0,12.0,54,0.00,,,0.01,257.000000,,2013-03-01 17:32:00,
2013-03-01 09:42:00,51.0,35.0,-100.00,South,180,6.0,12.0,54,0.00,,,0.01,257.000000,,2013-03-01 17:42:00,
2013-03-01 09:52:00,51.0,35.0,-100.00,South,180,6.0,12.0,54,0.00,,,0.01,257.000000,,2013-03-01 17:52:00,
2013-03-01 10:01:00,51.0,35.0,-100.00,South,180,6.0,12.0,54,0.00,,,0.01,257.000000,,2013-03-01 18:01:00,
2013-03-01 10:32:00,51.0,35.0,-100.00,South,182,10.0,19.0,54,0.00,,,0.01,369.000000,,2013-03-01 18:32:00,
2013-03-01 10:42:00,51.0,35.0,-100.00,South,182,10.0,19.0,54,0.00,,,0.01,369.000000,,2013-03-01 18:42:00,
2013-03-01 10:52:00,51.0,35.0,-100.00,South,182,10.0,19.0,54,0.00,,,0.01,369.000000,,2013-03-01 18:52:00,
2013-03-01 11:01:00,51.0,35.0,-100.00,South,182,10.0,19.0,54,0.00,,,0.01,369.000000,,2013-03-01 19:01:00,
2013-03-01 11:21:00,55.0,35.0,-100.00,SSE,154,11.0,16.0,46,0.00,,,0.01,499.000000,,2013-03-01 19:21:00,
2013-03-01 11:32:00,55.0,35.0,-100.00,SSE,154,11.0,16.0,46,0.00,,,0.01,499.000000,,2013-03-01 19:32:00,
2013-03-01 11:42:00,55.0,35.0,-100.00,SSE,154,11.0,16.0,46,0.00,,,0.01,499.000000,,2013-03-01 19:42:00,
2013-03-01 11:52:00,55.0,35.0,-100.00,SSE,154,11.0,16.0,46,0.00,,,0.01,499.000000,,2013-03-01 19:52:00,
2013-03-01 12:01:00,55.0,35.0,-100.00,SSE,154,11.0,16.0,46,0.00,,,0.01,499.000000,,2013-03-01 20:01:00,
2013-03-01 12:22:00,55.0,34.0,-100.00,SSE,164,7.0,16.0,45,0.00,,,0.01,437.000000,,2013-03-01 20:22:00,
2013-03-01 12:32:00,55.0,34.0,-100.00,SSE,164,7.0,16.0,45,0.00,,,0.01,437.000000,,2013-03-01 20:32:00,
2013-03-01 12:42:00,55.0,34.0,-100.00,SSE,164,7.0,16.0,45,0.00,,,0.01,437.000000,,2013-03-01 20:42:00,
2013-03-01 12:52:00,55.0,34.0,-100.00,SSE,164,7.0,16.0,45,0.00,,,0.01,437.000000,,2013-03-01 20:52:00,
2013-03-01 13:01:00,55.0,34.0,-100.00,SSE,164,7.0,16.0,45,0.00,,,0.01,437.000000,,2013-03-01 21:01:00,
2013-03-01 13:21:00,58.0,34.0,-100.00,South,173,6.0,14.0,40,0.00,,,0.00,411.000000,,2013-03-01 21:21:00,
2013-03-01 13:32:00,58.0,34.0,-100.00,South,173,6.0,14.0,40,0.00,,,0.00,411.000000,,2013-03-01 21:32:00,
2013-03-01 13:42:00,58.0,34.0,-100.00,South,173,6.0,14.0,40,0.00,,,0.00,411.000000,,2013-03-01 21:42:00,
2013-03-01 13:52:00,58.0,34.0,-100.00,South,173,6.0,14.0,40,0.00,,,0.00,411.000000,,2013-03-01 21:52:00,
2013-03-01 14:01:00,58.0,34.0,-100.00,South,173,6.0,14.0,40,0.00,,,0.00,411.000000,,2013-03-01 22:01:00,
2013-03-01 14:32:00,61.0,35.0,-100.00,SSW,196,3.0,12.0,37,0.00,,,0.00,556.000000,,2013-03-01 22:32:00,
2013-03-01 14:42:00,61.0,35.0,-100.00,SSW,196,3.0,12.0,37,0.00,,,0.00,556.000000,,2013-03-01 22:42:00,
2013-03-01 14:52:00,61.0,35.0,-100.00,SSW,196,3.0,12.0,37,0.00,,,0.00,556.000000,,2013-03-01 22:52:00,
2013-03-01 15:01:00,61.0,35.0,-100.00,SSW,196,3.0,12.0,37,0.00,,,0.00,556.000000,,2013-03-01 23:01:00,
2013-03-01 15:32:00,61.0,34.0,-100.00,SW,226,5.0,11.0,36,0.00,,,0.00,466.000000,,2013-03-01 23:32:00,
2013-03-01 15:42:00,61.0,34.0,-100.00,SW,226,5.0,11.0,36,0.00,,,0.00,466.000000,,2013-03-01 23:42:00,
2013-03-01 15:52:00,61.0,34.0,-100.00,SW,226,5.0,11.0,36,0.00,,,0.00,466.000000,,2013-03-01 23:52:00,
2013-03-01 16:01:00,61.0,34.0,-100.00,SW,226,5.0,11.0,36,0.00,,,0.00,466.000000,,2013-03-02 00:01:00,
2013-03-01 16:32:00,63.0,33.0,-100.00,SSE,147,3.0,8.0,33,0.00,,,0.00,376.000000,,2013-03-02 00:32:00,
2013-03-01 16:42:00,63.0,33.0,-100.00,SSE,147,3.0,8.0,33,0.00,,,0.00,376.000000,,2013-03-02 00:42:00,
2013-03-01 16:52:00,63.0,33.0,-100.00,SSE,147,3.0,8.0,33,0.00,,,0.00,376.000000,,2013-03-02 00:52:00,
2013-03-01 17:01:00,63.0,33.0,-100.00,SSE,147,3.0,8.0,33,0.00,,,0.00,376.000000,,2013-03-02 01:01:00,
2013-03-01 17:32:00,58.0,33.0,-100.00,West,260,4.0,9.0,38,0.00,,,0.00,179.000000,,2013-03-02 01:32:00,
2013-03-01 17:42:00,58.0,33.0,-100.00,West,260,4.0,9.0,38,0.00,,,0.00,179.000000,,2013-03-02 01:42:00,
2013-03-01 17:52:00,58.0,33.0,-100.00,West,260,4.0,9.0,38,0.00,,,0.00,179.000000,,2013-03-02 01:52:00,
2013-03-01 18:01:00,58.0,33.0,-100.00,West,260,4.0,9.0,38,0.00,,,0.00,179.000000,,2013-03-02 02:01:00,
2013-03-01 18:32:00,52.0,32.0,-100.00,ESE,115,4.0,5.0,47,0.00,,,0.00,32.000000,,2013-03-02 02:32:00,
2013-03-01 18:42:00,52.0,32.0,-100.00,ESE,115,4.0,5.0,47,0.00,,,0.00,32.000000,,2013-03-02 02:42:00,
2013-03-01 18:52:00,52.0,32.0,-100.00,ESE,115,4.0,5.0,47,0.00,,,0.00,32.000000,,2013-03-02 02:52:00,
2013-03-01 19:01:00,52.0,32.0,-100.00,ESE,115,4.0,5.0,47,0.00,,,0.00,32.000000,,2013-03-02 03:01:00,
2013-03-01 19:32:00,52.0,33.0,-100.00,South,179,3.0,5.0,48,0.00,,,0.00,1.000000,,2013-03-02 03:32:00,
2013-03-01 19:42:00,52.0,33.0,-100.00,South,179,3.0,5.0,48,0.00,,,0.00,1.000000,,2013-03-02 03:42:00,
2013-03-01 19:52:00,52.0,33.0,-100.00,South,179,3.0,5.0,48,0.00,,,0.00,1.000000,,2013-03-02 03:52:00,
2013-03-01 20:01:00,52.0,33.0,-100.00,South,179,3.0,5.0,48,0.00,,,0.00,1.000000,,2013-03-02 04:01:00,
2013-03-01 20:32:00,52.0,33.0,-100.00,SSW,200,3.0,5.0,49,0.00,,,0.00,1.000000,,2013-03-02 04:32:00,
2013-03-01 20:42:00,52.0,33.0,-100.00,SSW,200,3.0,5.0,49,0.00,,,0.00,1.000000,,2013-03-02 04:42:00,
2013-03-01 20:52:00,52.0,33.0,-100.00,SSW,200,3.0,5.0,49,0.00,,,0.00,1.000000,,2013-03-02 04:52:00,
2013-03-01 21:01:00,52.0,33.0,-100.00,SSW,200,3.0,5.0,49,0.00,,,0.00,1.000000,,2013-03-02 05:01:00,
2013-03-01 21:23:00,50.0,34.0,-100.00,SW,218,4.0,6.0,53,0.00,,,0.00,1.000000,,2013-03-02 05:23:00,
2013-03-01 21:32:00,50.0,34.0,-100.00,SW,218,4.0,6.0,53,0.00,,,0.00,1.000000,,2013-03-02 05:32:00,
2013-03-01 21:42:00,50.0,34.0,-100.00,SW,218,4.0,6.0,53,0.00,,,0.00,1.000000,,2013-03-02 05:42:00,
2013-03-01 21:52:00,50.0,34.0,-100.00,SW,218,4.0,6.0,53,0.00,,,0.00,1.000000,,2013-03-02 05:52:00,
2013-03-01 22:01:00,50.0,34.0,-100.00,SW,218,4.0,6.0,53,0.00,,,0.00,1.000000,,2013-03-02 06:01:00,
2013-03-01 22:32:00,47.0,34.0,-100.00,SE,143,5.0,6.0,61,-99.99,,,0.00,1.000000,,2013-03-02 06:32:00,
2013-03-01 22:42:00,47.0,34.0,-100.00,SE,143,5.0,6.0,61,-99.99,,,0.00,1.000000,,2013-03-02 06:42:00,
2013-03-01 22:52:00,47.0,34.0,-100.00,SE,143,5.0,6.0,61,-99.99,,,0.00,1.000000,,2013-03-02 06:52:00,
2013-03-01 23:01:00,47.0,34.0,-100.00,SE,143,5.0,6.0,61,-99.99,,,0.00,1.000000,,2013-03-02 07:01:00,
2013-03-01 23:22:00,45.0,34.0,-100.00,North,355,2.0,6.0,64,0.00,,,0.00,1.000000,,2013-03-02 07:22:00,
2013-03-01 23:32:00,45.0,34.0,-100.00,North,355,2.0,6.0,64,0.00,,,0.00,1.000000,,2013-03-02 07:32:00,
2013-03-01 23:42:00,45.0,34.0,-100.00,North,355,2.0,6.0,64,0.00,,,0.00,1.000000,,2013-03-02 07:42:00,
2013-03-01 23:52:00,45.0,34.0,-100.00,North,355,2.0,6.0,64,0.00,,,0.00,1.000000,,2013-03-02 07:52:00,